This is the latest recevied weather packets stored in our database for station/object WZ9ZZZ-1. If no packets are shown the sender has not sent any weather packets the latest 10 day(s).
| Time | Temp. | Humidity | Pressure | Rain* | Wind** | Luminosity | Snow |
|---|---|---|---|---|---|---|---|
| 1777572068 | 31.67° C | 72% | 1014 hPa | 0 mm | - | 737 W/m² | - |
| 1777571768 | 30.56° C | 75% | 1013.8 hPa | 0 mm | - | 705 W/m² | - |
| 1777571465 | 30° C | 74% | 1013.6 hPa | 0 mm | - | 718 W/m² | - |
| 1777571161 | 30.56° C | 75% | 1013.3 hPa | 0 mm | - | 649 W/m² | - |
| 1777570857 | 30° C | 74% | 1013.6 hPa | 0 mm | - | 672 W/m² | - |
| 1777570554 | 29.44° C | 75% | 1013.6 hPa | 0 mm | - | 571 W/m² | - |
| 1777570251 | 30° C | 76% | 1013.8 hPa | 0 mm | - | 665 W/m² | - |
| 1777569951 | 30° C | 73% | 1013.8 hPa | 0 mm | - | 482 W/m² | - |
| 1777569647 | 30.56° C | 75% | 1013.8 hPa | 0 mm | - | 712 W/m² | - |
| 1777569344 | 30.56° C | 73% | 1013.9 hPa | 0 mm | - | 773 W/m² | - |
| 1777569040 | 30.56° C | 74% | 1013.9 hPa | 0 mm | - | 739 W/m² | - |
| 1777568737 | 30° C | 75% | 1013.9 hPa | 0 mm | - | 624 W/m² | - |
| 1777568435 | 30° C | 76% | 1014.1 hPa | 0 mm | - | 800 W/m² | - |
| 1777568131 | 29.44° C | 75% | 1014.2 hPa | 0 mm | - | 270 W/m² | - |
| 1777567827 | 30.56° C | 74% | 1014.2 hPa | 0 mm | - | 626 W/m² | - |
| 1777567523 | 29.44° C | 75% | 1014.2 hPa | 0 mm | - | 601 W/m² | - |
| 1777567221 | 29.44° C | 75% | 1014.1 hPa | 0 mm | - | 270 W/m² | - |
| 1777566920 | 30° C | 74% | 1014.2 hPa | 0 mm | - | 314 W/m² | - |
| 1777566617 | 29.44° C | 75% | 1014.2 hPa | 0 mm | - | 760 W/m² | - |
| 1777566315 | 28.89° C | 75% | 1014.2 hPa | 0 mm | - | 262 W/m² | - |
| 1777566012 | 28.33° C | 76% | 1014.4 hPa | 0 mm | - | 335 W/m² | - |
| 1777565707 | 27.78° C | 77% | 1014.6 hPa | 0 mm | - | 717 W/m² | - |
| 1777565404 | 28.33° C | 76% | 1014.6 hPa | 0 mm | - | 225 W/m² | - |
| 1777565100 | 28.89° C | 76% | 1014.6 hPa | 0 mm | - | 656 W/m² | - |
| 1777564796 | 29.44° C | 75% | 1014.6 hPa | 0 mm | - | 641 W/m² | - |
* Rain latest hour (hover to see other rain measurements)
** Current wind speed in m/s (hover to see current wind gust speed)